Torna al catalogo

THORAD AGENA D DEB

AttivoLEO
NORAD 4171·DEBRIS·🇺🇸 United States

Lanciato Sep 30, 1969 da Vandenberg Space Force Base

Loading…

Prossimi Passaggi (prossime 24 ore)

TLE

AggiornatoSource: Space-Track

Epoca: Sep 14, 2026, 14:02 UTC

1  4171U 69082AP  26257.58494091  .00000525  00000-0  19160-3 0  9992
2  4171  70.0771 330.1191 0035796 346.3815  13.6344 14.37907446952041

Traccia THORAD AGENA D DEB in tempo reale con AllMySat

Download on the App Store